| time (UTC) | temp F | wind direction | speed MPH | gust MPH | rain 1hr in | rain 24hr in | rain mn in | humidity % | barometer mb |
| 20260906233100 | 43 | 92 | 16.0 | 27.0 | 0.03 | 1.71 | 1.50 | 94 | 1004.3 |
| 20260906232537 | 43 | 103 | 18.0 | 27.0 | 0.03 | 1.71 | 1.50 | 94 | 1004.3 |
| 20260906232037 | 43 | 137 | 17.0 | 27.0 | 0.03 | 1.71 | 1.50 | 94 | 1004.2 |
| 20260906231555 | 43 | 94 | 15.0 | 27.0 | 0.03 | 1.70 | 1.49 | 94 | 1004.2 |
| 20260906231037 | 43 | 109 | 11.0 | 24.0 | 0.03 | 1.70 | 1.49 | 95 | 1004.3 |
| 20260906230537 | 43 | 97 | 12.0 | 28.0 | 0.03 | 1.70 | 1.49 | 95 | 1004.3 |
| 20260906230116 | 43 | 86 | 17.0 | 28.0 | 0.03 | 1.70 | 1.49 | 94 | 1004.4 |
| 20260906225537 | 43 | 98 | 12.0 | 24.0 | 0.03 | 1.70 | 1.48 | 94 | 1004.4 |
| 20260906225037 | 43 | 86 | 11.0 | 26.0 | 0.03 | 1.70 | 1.48 | 95 | 1004.5 |
| 20260906224605 | 43 | 136 | 13.0 | 26.0 | 0.03 | 1.69 | 1.48 | 94 | 1004.4 |
| 20260906224038 | 43 | 86 | 15.0 | 26.0 | 0.03 | 1.69 | 1.48 | 94 | 1004.3 |
| 20260906223537 | 43 | 94 | 12.0 | 23.0 | 0.03 | 1.68 | 1.47 | 94 | 1004.3 |
| 20260906223100 | 43 | 101 | 14.0 | 32.0 | 0.03 | 1.68 | 1.47 | 94 | 1004.4 |
| 20260906222536 | 43 | 82 | 18.0 | 32.0 | 0.03 | 1.67 | 1.46 | 94 | 1004.2 |
| 20260906222102 | 43 | 118 | 14.0 | 26.0 | 0.03 | 1.67 | 1.46 | 94 | 1004.2 |
| 20260906221603 | 43 | 92 | 15.0 | 31.0 | 0.04 | 1.67 | 1.46 | 94 | 1004.1 |
| 20260906221037 | 43 | 109 | 18.0 | 31.0 | 0.03 | 1.66 | 1.45 | 94 | 1004.1 |
| 20260906220539 | 43 | 126 | 17.0 | 29.0 | 0.04 | 1.66 | 1.45 | 94 | 1004.0 |
| 20260906220057 | 44 | 84 | 17.0 | 26.0 | 0.04 | 1.66 | 1.45 | 94 | 1004.0 |
| 20260906215539 | 44 | 91 | 18.0 | 27.0 | 0.04 | 1.66 | 1.44 | 94 | 1003.9 |
| 20260906215037 | 44 | 84 | 18.0 | 31.0 | 0.04 | 1.66 | 1.44 | 94 | 1003.8 |
| 20260906214553 | 44 | 84 | 19.0 | 31.0 | 0.04 | 1.65 | 1.44 | 94 | 1003.7 |
| 20260906214040 | 44 | 115 | 19.0 | 28.0 | 0.05 | 1.65 | 1.44 | 94 | 1003.8 |
| 20260906213540 | 44 | 132 | 16.0 | 28.0 | 0.05 | 1.64 | 1.43 | 94 | 1003.9 |
| 20260906213111 | 44 | 96 | 17.0 | 29.0 | 0.06 | 1.64 | 1.43 | 94 | 1003.8 |
| 20260906212536 | 44 | 100 | 19.0 | 29.0 | 0.06 | 1.63 | 1.42 | 94 | 1003.6 |
| 20260906212037 | 44 | 76 | 18.0 | 30.0 | 0.07 | 1.63 | 1.42 | 94 | 1003.4 |
| 20260906211605 | 44 | 73 | 19.0 | 30.0 | 0.07 | 1.62 | 1.41 | 94 | 1003.2 |
| 20260906211039 | 44 | 63 | 20.0 | 33.0 | 0.07 | 1.62 | 1.41 | 94 | 1003.1 |
| 20260906210539 | 44 | 68 | 17.0 | 33.0 | 0.07 | 1.62 | 1.40 | 94 | 1003.0 |
| 20260906210105 | 44 | 83 | 18.0 | 32.0 | 0.07 | 1.62 | 1.40 | 94 | 1003.0 |
| 20260906205540 | 44 | 109 | 22.0 | 32.0 | 0.07 | 1.61 | 1.40 | 93 | 1003.1 |
| 20260906205038 | 44 | 78 | 22.0 | 32.0 | 0.07 | 1.61 | 1.40 | 94 | 1002.9 |
| 20260906204551 | 44 | 83 | 18.0 | 37.0 | 0.07 | 1.60 | 1.39 | 94 | 1003.1 |
| 20260906204038 | 44 | 98 | 20.0 | 37.0 | 0.07 | 1.59 | 1.38 | 94 | 1003.0 |
| 20260906203539 | 44 | 107 | 17.0 | 31.0 | 0.07 | 1.59 | 1.37 | 94 | 1003.0 |
| 20260906203101 | 44 | 96 | 15.0 | 31.0 | 0.07 | 1.58 | 1.37 | 94 | 1003.0 |
| 20260906202539 | 44 | 112 | 18.0 | 33.0 | 0.07 | 1.57 | 1.36 | 94 | 1003.0 |
| 20260906202038 | 44 | 73 | 24.0 | 33.0 | 0.06 | 1.56 | 1.35 | 93 | 1002.9 |
| 20260906201610 | 44 | 95 | 18.0 | 30.0 | 0.05 | 1.55 | 1.34 | 93 | 1002.8 |
| 20260906201039 | 44 | 104 | 18.0 | 32.0 | 0.05 | 1.55 | 1.33 | 93 | 1002.6 |
| 20260906200539 | 44 | 99 | 16.0 | 32.0 | 0.05 | 1.55 | 1.33 | 93 | 1001.9 |
| 20260906200055 | 44 | 95 | 22.0 | 32.0 | 0.05 | 1.55 | 1.33 | 93 | 1001.5 |
| 20260906195539 | 44 | 63 | 20.0 | 29.0 | 0.05 | 1.54 | 1.33 | 94 | 1001.5 |
| 20260906195042 | 44 | 88 | 17.0 | 32.0 | 0.05 | 1.53 | 1.32 | 94 | 1001.4 |
| 20260906194552 | 44 | 62 | 20.0 | 33.0 | 0.06 | 1.53 | 1.32 | 93 | 1001.4 |
| 20260906194039 | 44 | 104 | 21.0 | 33.0 | 0.06 | 1.52 | 1.31 | 93 | 1001.3 |
| 20260906193539 | 44 | 90 | 19.0 | 33.0 | 0.05 | 1.51 | 1.30 | 93 | 1001.4 |
| 20260906193048 | 44 | 114 | 19.0 | 31.0 | 0.05 | 1.51 | 1.29 | 94 | 1001.4 |
| 20260906192539 | 44 | 93 | 20.0 | 34.0 | 0.04 | 1.50 | 1.29 | 94 | 1001.3 |
| 20260906192039 | 44 | 86 | 19.0 | 34.0 | 0.05 | 1.50 | 1.29 | 94 | 1001.2 |
| 20260906191604 | 45 | 101 | 16.0 | 31.0 | 0.04 | 1.49 | 1.28 | 94 | 1001.1 |
| 20260906191043 | 45 | 86 | 16.0 | 31.0 | 0.04 | 1.49 | 1.28 | 94 | 1000.5 |
| 20260906190539 | 45 | 117 | 20.0 | 35.0 | 0.05 | 1.49 | 1.28 | 94 | 1000.2 |
| 20260906190106 | 45 | 98 | 19.0 | 35.0 | 0.05 | 1.49 | 1.28 | 94 | 1000.1 |
| 20260906185539 | 45 | 122 | 18.0 | 33.0 | 0.05 | 1.48 | 1.27 | 94 | 999.9 |
| 20260906185039 | 45 | 79 | 20.0 | 33.0 | 0.04 | 1.48 | 1.26 | 94 | 999.8 |
| 20260906184604 | 45 | 98 | 20.0 | 33.0 | 0.04 | 1.47 | 1.25 | 93 | 1000.2 |
| 20260906184039 | 45 | 95 | 19.0 | 29.0 | 0.04 | 1.46 | 1.25 | 94 | 1000.3 |
| 20260906183539 | 45 | 89 | 17.0 | 26.0 | 0.05 | 1.46 | 1.25 | 94 | 1000.1 |
| 20260906183115 | 45 | 105 | 17.0 | 29.0 | 0.05 | 1.45 | 1.24 | 94 | 999.9 |
| 20260906182538 | 45 | 90 | 17.0 | 32.0 | 0.06 | 1.45 | 1.24 | 94 | 999.8 |
| 20260906182042 | 45 | 92 | 19.0 | 33.0 | 0.05 | 1.44 | 1.23 | 94 | 999.9 |
| 20260906181600 | 45 | 102 | 20.0 | 33.0 | 0.06 | 1.44 | 1.23 | 94 | 1000.0 |
| 20260906181036 | 46 | 133 | 19.0 | 31.0 | 0.06 | 1.44 | 1.22 | 94 | 1000.0 |
| 20260906180540 | 46 | 88 | 18.0 | 35.0 | 0.07 | 1.44 | 1.22 | 94 | 1000.2 |
| 20260906180115 | 46 | 102 | 18.0 | 35.0 | 0.07 | 1.44 | 1.22 | 94 | 1000.3 |
| 20260906175540 | 46 | 83 | 20.0 | 32.0 | 0.07 | 1.43 | 1.22 | 93 | 1000.6 |
| 20260906175040 | 46 | 78 | 20.0 | 32.0 | 0.07 | 1.42 | 1.21 | 94 | 1000.6 |
| 20260906174556 | 46 | 84 | 18.0 | 26.0 | 0.10 | 1.42 | 1.21 | 94 | 1000.8 |
| 20260906174037 | 47 | 98 | 16.0 | 26.0 | 0.11 | 1.41 | 1.20 | 94 | 1000.6 |
| 20260906173536 | 47 | 73 | 15.0 | 26.0 | 0.11 | 1.40 | 1.19 | 94 | 1000.6 |
| 20260906173101 | 47 | 96 | 13.0 | 26.0 | 0.13 | 1.40 | 1.18 | 94 | 1000.7 |
| 20260906172537 | 47 | 94 | 16.0 | 26.0 | 0.14 | 1.39 | 1.18 | 94 | 1000.5 |
| 20260906172036 | 47 | 113 | 13.0 | 28.0 | 0.15 | 1.39 | 1.18 | 94 | 1000.7 |
| 20260906171557 | 47 | 126 | 17.0 | 28.0 | 0.15 | 1.38 | 1.17 | 94 | 1000.7 |
| 20260906171039 | 47 | 85 | 17.0 | 25.0 | 0.16 | 1.37 | 1.16 | 94 | 1000.8 |
| 20260906170537 | 47 | 94 | 12.0 | 24.0 | 0.17 | 1.37 | 1.15 | 94 | 1000.8 |
| 20260906170056 | 47 | 103 | 15.0 | 27.0 | 0.18 | 1.36 | 1.14 | 94 | 1000.8 |
| 20260906165536 | 47 | 68 | 17.0 | 29.0 | 0.18 | 1.35 | 1.14 | 94 | 1000.4 |
| 20260906165039 | 48 | 86 | 15.0 | 30.0 | 0.18 | 1.33 | 1.12 | 94 | 1000.4 |
| 20260906164552 | 48 | 62 | 15.0 | 30.0 | 0.17 | 1.32 | 1.11 | 94 | 1000.3 |
| 20260906164037 | 48 | 107 | 9.0 | 24.0 | 0.17 | 1.30 | 1.09 | 95 | 1000.2 |
| 20260906163539 | 48 | 82 | 12.0 | 24.0 | 0.18 | 1.29 | 1.07 | 95 | 1000.1 |
| 20260906163049 | 48 | 103 | 14.0 | 24.0 | 0.17 | 1.26 | 1.05 | 94 | 1000.0 |
| 20260906162536 | 48 | 93 | 13.0 | 24.0 | 0.18 | 1.25 | 1.03 | 94 | 999.9 |
| 20260906162038 | 48 | 117 | 14.0 | 24.0 | 0.22 | 1.23 | 1.02 | 95 | 999.9 |
| 20260906161601 | 48 | 98 | 13.0 | 28.0 | 0.25 | 1.22 | 1.01 | 94 | 999.9 |
| 20260906161036 | 48 | 92 | 20.0 | 30.0 | 0.25 | 1.21 | 1.00 | 94 | 1000.1 |
| 20260906160539 | 48 | 88 | 17.0 | 30.0 | 0.25 | 1.19 | 0.98 | 94 | 1000.1 |
| 20260906160135 | 48 | 89 | 18.0 | 27.0 | 0.24 | 1.17 | 0.96 | 95 | 1000.1 |
| 20260906155536 | 48 | 93 | 16.0 | 25.0 | 0.26 | 1.16 | 0.95 | 95 | 1000.1 |
| 20260906155040 | 48 | 105 | 14.0 | 21.0 | 0.31 | 1.15 | 0.94 | 95 | 1000.2 |
| 20260906154552 | 49 | 80 | 13.0 | 20.0 | 0.33 | 1.14 | 0.93 | 95 | 1000.3 |
| 20260906154037 | 49 | 84 | 11.0 | 17.0 | 0.33 | 1.12 | 0.91 | 95 | 1000.2 |
| 20260906153539 | 49 | 82 | 11.0 | 17.0 | 0.36 | 1.11 | 0.89 | 95 | 1000.2 |
| 20260906153059 | 49 | 80 | 10.0 | 15.0 | 0.37 | 1.09 | 0.88 | 95 | 1000.2 |
| 20260906152538 | 49 | 94 | 7.0 | 12.0 | 0.34 | 1.06 | 0.85 | 95 | 1000.7 |
| 20260906152036 | 50 | 97 | 8.0 | 15.0 | 0.30 | 1.00 | 0.79 | 95 | 1000.6 |
| 20260906151557 | 50 | 90 | 9.0 | 15.0 | 0.29 | 0.96 | 0.75 | 95 | 1000.4 |
| 20260906151041 | 50 | 91 | 9.0 | 14.0 | 0.29 | 0.95 | 0.74 | 95 | 1000.3 |
| 20260906150539 | 51 | 119 | 8.0 | 14.0 | 0.29 | 0.93 | 0.72 | 95 | 1000.3 |
| 20260906150056 | 51 | 92 | 9.0 | 13.0 | 0.29 | 0.92 | 0.70 | 95 | 1000.1 |
| 20260906145539 | 51 | 80 | 6.0 | 15.0 | 0.28 | 0.89 | 0.68 | 95 | 1000.5 |
| 20260906145039 | 52 | 88 | 3.0 | 15.0 | 0.24 | 0.83 | 0.62 | 95 | 1000.7 |
| 20260906144554 | 53 | 56 | 6.0 | 13.0 | 0.25 | 0.81 | 0.59 | 95 | 1000.5 |
| 20260906144038 | 54 | 92 | 8.0 | 12.0 | 0.27 | 0.78 | 0.57 | 95 | 1000.6 |
| 20260906143543 | 55 | 90 | 2.0 | 8.0 | 0.25 | 0.74 | 0.53 | 96 | 1000.7 |
| 20260906143050 | 55 | 105 | 3.0 | 8.0 | 0.25 | 0.72 | 0.51 | 96 | 1000.7 |
| 20260906142539 | 55 | 111 | 4.0 | 8.0 | 0.26 | 0.70 | 0.49 | 96 | 1000.7 |
| 20260906142042 | 55 | 107 | 2.0 | 4.0 | 0.27 | 0.70 | 0.48 | 96 | 1000.9 |
| 20260906141601 | 55 | 107 | 0.0 | 4.0 | 0.26 | 0.67 | 0.46 | 96 | 1001.1 |
| 20260906141039 | 55 | 109 | 2.0 | 4.0 | 0.25 | 0.65 | 0.44 | 96 | 1001.1 |
| 20260906140542 | 55 | 94 | 1.0 | 4.0 | 0.26 | 0.63 | 0.42 | 96 | 1001.4 |
| 20260906140056 | 55 | 97 | 1.0 | 3.0 | 0.26 | 0.62 | 0.40 | 96 | 1001.3 |
| 20260906135540 | 55 | 92 | 0.0 | 2.0 | 0.26 | 0.60 | 0.39 | 96 | 1001.3 |
| 20260906135039 | 55 | 88 | 0.0 | 2.0 | 0.25 | 0.59 | 0.37 | 96 | 1001.5 |
| 20260906134554 | 55 | 88 | 0.0 | 3.0 | 0.23 | 0.55 | 0.33 | 96 | 1001.6 |
| 20260906134039 | 55 | 88 | 1.0 | 3.0 | 0.21 | 0.51 | 0.29 | 96 | 1001.5 |
| 20260906133539 | 55 | 0 | 0.0 | 2.0 | 0.19 | 0.48 | 0.27 | 95 | 1001.6 |
| 20260906133104 | 54 | 231 | 0.0 | 1.0 | 0.17 | 0.45 | 0.24 | 95 | 1001.6 |
| 20260906132540 | 55 | 234 | 0.0 | 1.0 | 0.17 | 0.44 | 0.22 | 95 | 1001.7 |
| 20260906132039 | 54 | 236 | 0.0 | 1.0 | 0.17 | 0.42 | 0.21 | 95 | 1001.8 |
| 20260906131557 | 55 | 236 | 0.0 | 1.0 | 0.15 | 0.40 | 0.18 | 95 | 1001.8 |
| 20260906131039 | 55 | 0 | 0.0 | 1.0 | 0.14 | 0.38 | 0.17 | 95 | 1001.9 |
| 20260906130539 | 54 | 0 | 0.0 | 1.0 | 0.14 | 0.37 | 0.15 | 95 | 1001.7 |
| 20260906130104 | 54 | 0 | 0.0 | 0.0 | 0.13 | 0.35 | 0.14 | 95 | 1001.8 |
| 20260906125543 | 54 | 0 | 0.0 | 1.0 | 0.14 | 0.33 | 0.12 | 95 | 1001.8 |
| 20260906125039 | 55 | 236 | 0.0 | 1.0 | 0.14 | 0.32 | 0.11 | 95 | 1001.9 |
| 20260906124600 | 55 | 0 | 0.0 | 0.0 | 0.14 | 0.31 | 0.10 | 95 | 1001.9 |
| 20260906124042 | 55 | 0 | 0.0 | 0.0 | 0.14 | 0.29 | 0.08 | 95 | 1002.0 |
| 20260906123542 | 55 | 0 | 0.0 | 0.0 | 0.14 | 0.29 | 0.07 | 95 | 1001.8 |
| 20260906123058 | 55 | 0 | 0.0 | 2.0 | 0.14 | 0.28 | 0.07 | 95 | 1002.0 |
| 20260906122541 | 55 | 0 | 0.0 | 2.0 | 0.14 | 0.26 | 0.05 | 95 | 1002.0 |
| 20260906122040 | 55 | 236 | 1.0 | 2.0 | 0.14 | 0.25 | 0.03 | 95 | 1002.2 |
| 20260906121558 | 55 | 0 | 1.0 | 2.0 | 0.14 | 0.24 | 0.03 | 95 | 1002.1 |
| 20260906121039 | 55 | 236 | 0.0 | 1.0 | 0.14 | 0.22 | 0.01 | 94 | 1002.1 |
| 20260906120539 | 55 | 0 | 0.0 | 1.0 | 0.14 | 0.22 | 0.01 | 94 | 1002.1 |
| 20260906120052 | 55 | 236 | 0.0 | 1.0 | 0.14 | 0.21 | 0.00 | 94 | 1002.1 |
| 20260906115539 | 55 | 0 | 0.0 | 1.0 | 0.11 | 0.18 | 0.18 | 94 | 1002.2 |
| 20260906115039 | 55 | 0 | 0.0 | 3.0 | 0.11 | 0.17 | 0.17 | 94 | 1002.2 |
| 20260906114557 | 55 | 0 | 0.0 | 3.0 | 0.11 | 0.16 | 0.16 | 94 | 1002.3 |
| 20260906114036 | 55 | 236 | 1.0 | 3.0 | 0.11 | 0.15 | 0.15 | 94 | 1002.4 |
| 20260906113539 | 55 | 61 | 0.0 | 4.0 | 0.11 | 0.14 | 0.14 | 94 | 1002.5 |
| 20260906113058 | 55 | 63 | 1.0 | 4.0 | 0.10 | 0.13 | 0.13 | 94 | 1002.4 |
| 20260906112539 | 55 | 264 | 1.0 | 4.0 | 0.09 | 0.12 | 0.12 | 94 | 1002.6 |
| 20260906112043 | 55 | 79 | 0.0 | 6.0 | 0.08 | 0.11 | 0.11 | 94 | 1002.5 |
| 20260906111555 | 55 | 270 | 1.0 | 6.0 | 0.08 | 0.10 | 0.10 | 94 | 1002.6 |
| 20260906111039 | 55 | 244 | 3.0 | 6.0 | 0.07 | 0.08 | 0.08 | 93 | 1002.6 |
| 20260906110540 | 55 | 239 | 0.0 | 3.0 | 0.06 | 0.07 | 0.07 | 93 | 1002.5 |
| 20260906110053 | 55 | 0 | 0.0 | 4.0 | 0.06 | 0.07 | 0.07 | 93 | 1002.6 |
| 20260906105542 | 55 | 238 | 2.0 | 4.0 | 0.05 | 0.06 | 0.06 | 93 | 1002.7 |
| 20260906105039 | 55 | 113 | 1.0 | 4.0 | 0.04 | 0.05 | 0.05 | 93 | 1002.6 |
| 20260906104548 | 55 | 0 | 0.0 | 4.0 | 0.04 | 0.05 | 0.05 | 93 | 1002.6 |
| 20260906104042 | 55 | 262 | 2.0 | 5.0 | 0.03 | 0.04 | 0.04 | 93 | 1002.7 |
| 20260906103540 | 55 | 267 | 2.0 | 6.0 | 0.03 | 0.03 | 0.03 | 92 | 1002.8 |
| 20260906103058 | 55 | 271 | 3.0 | 7.0 | 0.03 | 0.03 | 0.03 | 92 | 1002.8 |
| 20260906102539 | 55 | 252 | 2.0 | 7.0 | 0.03 | 0.03 | 0.03 | 92 | 1002.9 |
| 20260906102038 | 55 | 330 | 2.0 | 7.0 | 0.02 | 0.02 | 0.02 | 92 | 1002.9 |
| 20260906101554 | 55 | 266 | 1.0 | 6.0 | 0.01 | 0.01 | 0.01 | 92 | 1003.0 |
| 20260906101042 | 55 | 286 | 2.0 | 7.0 | 0.01 | 0.01 | 0.01 | 91 | 1003.0 |
| 20260906100539 | 55 | 0 | 1.0 | 7.0 | 0.01 | 0.01 | 0.01 | 91 | 1003.0 |
| 20260906100050 | 55 | 270 | 2.0 | 7.0 | 0.00 | 0.00 | 0.00 | 91 | 1003.0 |
| 20260906095542 | 55 | 0 | 1.0 | 6.0 | 0.00 | 0.00 | 0.00 | 91 | 1003.1 |
| 20260906095043 | 55 | 263 | 2.0 | 6.0 | 0.00 | 0.00 | 0.00 | 91 | 1003.1 |
| 20260906094558 | 55 | 265 | 3.0 | 7.0 | 0.00 | 0.00 | 0.00 | 90 | 1003.1 |
| 20260906094040 | 55 | 271 | 3.0 | 7.0 | 0.00 | 0.00 | 0.00 | 90 | 1003.1 |
| 20260906093539 | 56 | 224 | 3.0 | 10.0 | 0.00 | 0.00 | 0.00 | 90 | 1003.0 |
| 20260906093058 | 56 | 264 | 4.0 | 10.0 | 0.00 | 0.00 | 0.00 | 89 | 1003.1 |
| 20260906092543 | 56 | 248 | 2.0 | 7.0 | 0.00 | 0.00 | 0.00 | 89 | 1003.0 |
| 20260906092040 | 56 | 259 | 3.0 | 6.0 | 0.00 | 0.00 | 0.00 | 89 | 1003.0 |
| 20260906091556 | 56 | 268 | 2.0 | 7.0 | 0.00 | 0.00 | 0.00 | 88 | 1003.0 |
| 20260906091039 | 56 | 270 | 4.0 | 10.0 | 0.00 | 0.00 | 0.00 | 87 | 1003.0 |
| 20260906090540 | 56 | 261 | 3.0 | 10.0 | 0.00 | 0.00 | 0.00 | 87 | 1002.9 |
| 20260906090103 | 56 | 261 | 4.0 | 10.0 | 0.00 | 0.00 | 0.00 | 86 | 1003.0 |
| 20260906085540 | 56 | 275 | 3.0 | 7.0 | 0.00 | 0.00 | 0.00 | 86 | 1003.0 |
| 20260906085039 | 56 | 261 | 3.0 | 7.0 | 0.00 | 0.00 | 0.00 | 86 | 1003.0 |
| 20260906084558 | 56 | 257 | 3.0 | 6.0 | 0.00 | 0.00 | 0.00 | 86 | 1003.1 |
| 20260906084040 | 56 | 276 | 3.0 | 8.0 | 0.00 | 0.00 | 0.00 | 85 | 1003.1 |
| 20260906083539 | 56 | 274 | 3.0 | 8.0 | 0.00 | 0.00 | 0.00 | 85 | 1003.1 |
| 20260906083056 | 56 | 262 | 3.0 | 8.0 | 0.00 | 0.00 | 0.00 | 85 | 1003.2 |
| 20260906082539 | 57 | 262 | 4.0 | 9.0 | 0.00 | 0.00 | 0.00 | 85 | 1003.2 |
| 20260906082042 | 57 | 261 | 4.0 | 9.0 | 0.00 | 0.00 | 0.00 | 84 | 1003.2 |
| 20260906081607 | 57 | 270 | 4.0 | 9.0 | 0.00 | 0.00 | 0.00 | 83 | 1003.3 |
| 20260906081039 | 57 | 273 | 6.0 | 11.0 | 0.00 | 0.00 | 0.00 | 82 | 1003.2 |
| 20260906080539 | 57 | 295 | 6.0 | 11.0 | 0.00 | 0.00 | 0.00 | 81 | 1003.4 |
| 20260906080054 | 57 | 272 | 6.0 | 11.0 | 0.00 | 0.00 | 0.00 | 81 | 1003.4 |
| 20260906075539 | 58 | 266 | 5.0 | 12.0 | 0.00 | 0.00 | 0.00 | 80 | 1003.4 |
| 20260906075039 | 58 | 279 | 6.0 | 16.0 | 0.00 | 0.00 | 0.00 | 80 | 1003.5 |
| 20260906074605 | 58 | 288 | 7.0 | 16.0 | 0.00 | 0.00 | 0.00 | 79 | 1003.5 |
| 20260906074038 | 58 | 268 | 8.0 | 17.0 | 0.00 | 0.00 | 0.00 | 79 | 1003.6 |
| 20260906073542 | 58 | 271 | 8.0 | 17.0 | 0.00 | 0.00 | 0.00 | 78 | 1003.5 |
| 20260906073054 | 58 | 273 | 8.0 | 17.0 | 0.00 | 0.00 | 0.00 | 78 | 1003.6 |
| 20260906072540 | 58 | 269 | 8.0 | 17.0 | 0.00 | 0.00 | 0.00 | 77 | 1003.4 |
| 20260906072043 | 58 | 277 | 7.0 | 15.0 | 0.00 | 0.00 | 0.00 | 77 | 1003.5 |
| 20260906071556 | 58 | 280 | 8.0 | 14.0 | 0.00 | 0.00 | 0.00 | 77 | 1003.6 |
| 20260906071039 | 58 | 315 | 6.0 | 12.0 | 0.00 | 0.00 | 0.00 | 77 | 1003.5 |
| 20260906070540 | 58 | 260 | 6.0 | 11.0 | 0.00 | 0.00 | 0.00 | 77 | 1003.5 |
| 20260906070054 | 58 | 269 | 7.0 | 11.0 | 0.00 | 0.00 | 0.00 | 76 | 1003.6 |
| 20260906065539 | 58 | 314 | 7.0 | 12.0 | 0.00 | 0.00 | 0.00 | 76 | 1003.8 |
| 20260906065037 | 58 | 278 | 8.0 | 14.0 | 0.00 | 0.00 | 0.00 | 76 | 1003.7 |
| 20260906064559 | 58 | 348 | 8.0 | 14.0 | 0.00 | 0.00 | 0.00 | 75 | 1003.7 |
| 20260906064038 | 58 | 305 | 9.0 | 14.0 | 0.00 | 0.00 | 0.00 | 75 | 1003.6 |
| 20260906063538 | 58 | 267 | 7.0 | 14.0 | 0.00 | 0.00 | 0.00 | 76 | 1003.5 |
| 20260906063058 | 58 | 274 | 7.0 | 13.0 | 0.00 | 0.00 | 0.00 | 75 | 1003.5 |
| 20260906062538 | 58 | 350 | 5.0 | 14.0 | 0.00 | 0.00 | 0.00 | 75 | 1003.4 |
| 20260906062038 | 58 | 267 | 7.0 | 14.0 | 0.00 | 0.00 | 0.00 | 75 | 1003.5 |
| 20260906061607 | 57 | 257 | 4.0 | 13.0 | 0.00 | 0.00 | 0.00 | 76 | 1003.4 |
| 20260906061039 | 58 | 229 | 3.0 | 13.0 | 0.00 | 0.00 | 0.00 | 75 | 1003.4 |
| 20260906060539 | 58 | 265 | 6.0 | 13.0 | 0.00 | 0.00 | 0.00 | 75 | 1003.3 |
| 20260906060055 | 58 | 268 | 4.0 | 11.0 | 0.00 | 0.00 | 0.00 | 75 | 1003.5 |
| 20260906055539 | 58 | 299 | 6.0 | 11.0 | 0.00 | 0.00 | 0.00 | 74 | 1003.5 |
| 20260906055036 | 58 | 290 | 7.0 | 13.0 | 0.00 | 0.00 | 0.00 | 73 | 1003.4 |
| 20260906054559 | 58 | 288 | 7.0 | 16.0 | 0.00 | 0.00 | 0.00 | 73 | 1003.4 |
| 20260906054041 | 58 | 264 | 6.0 | 16.0 | 0.00 | 0.00 | 0.00 | 73 | 1003.6 |
| 20260906053539 | 58 | 271 | 6.0 | 12.0 | 0.00 | 0.00 | 0.00 | 73 | 1003.8 |
| 20260906053100 | 58 | 280 | 6.0 | 15.0 | 0.00 | 0.00 | 0.00 | 73 | 1003.8 |
| 20260906052548 | 59 | 273 | 7.0 | 17.0 | 0.00 | 0.00 | 0.00 | 72 | 1004.0 |
| 20260906052040 | 59 | 269 | 10.0 | 21.0 | 0.00 | 0.00 | 0.00 | 71 | 1004.2 |
| 20260906051603 | 59 | 277 | 10.0 | 21.0 | 0.00 | 0.00 | 0.00 | 71 | 1004.4 |
| 20260906051039 | 59 | 297 | 8.0 | 14.0 | 0.00 | 0.00 | 0.00 | 72 | 1004.5 |
| 20260906050543 | 58 | 321 | 4.0 | 11.0 | 0.00 | 0.00 | 0.00 | 74 | 1004.4 |
| 20260906050056 | 59 | 284 | 5.0 | 16.0 | 0.00 | 0.00 | 0.00 | 73 | 1004.4 |
| 20260906045543 | 59 | 267 | 7.0 | 16.0 | 0.00 | 0.00 | 0.00 | 72 | 1004.5 |
| 20260906045039 | 59 | 286 | 8.0 | 18.0 | 0.00 | 0.00 | 0.00 | 71 | 1004.4 |
| 20260906044559 | 59 | 292 | 10.0 | 18.0 | 0.00 | 0.00 | 0.00 | 71 | 1004.4 |
| 20260906044040 | 59 | 284 | 10.0 | 18.0 | 0.00 | 0.00 | 0.00 | 71 | 1004.6 |
| 20260906043539 | 59 | 248 | 10.0 | 17.0 | 0.00 | 0.00 | 0.00 | 70 | 1004.6 |
| 20260906043056 | 59 | 275 | 11.0 | 17.0 | 0.00 | 0.00 | 0.00 | 70 | 1004.6 |
| 20260906042542 | 60 | 306 | 10.0 | 19.0 | 0.00 | 0.00 | 0.00 | 70 | 1004.8 |
| 20260906042039 | 60 | 283 | 9.0 | 19.0 | 0.00 | 0.00 | 0.00 | 69 | 1004.9 |
| 20260906041555 | 60 | 300 | 11.0 | 19.0 | 0.00 | 0.00 | 0.00 | 68 | 1005.0 |
| 20260906041038 | 60 | 277 | 10.0 | 19.0 | 0.00 | 0.00 | 0.00 | 68 | 1005.1 |
| 20260906040539 | 60 | 281 | 10.0 | 19.0 | 0.00 | 0.00 | 0.00 | 70 | 1005.1 |
| 20260906040105 | 61 | 279 | 11.0 | 16.0 | 0.00 | 0.00 | 0.00 | 68 | 1005.2 |
| 20260906035541 | 61 | 269 | 10.0 | 16.0 | 0.00 | 0.00 | 0.00 | 68 | 1005.1 |
| 20260906035036 | 61 | 283 | 10.0 | 15.0 | 0.00 | 0.00 | 0.00 | 67 | 1005.2 |
| 20260906034559 | 61 | 292 | 8.0 | 16.0 | 0.00 | 0.00 | 0.00 | 69 | 1005.1 |
| 20260906034038 | 62 | 292 | 8.0 | 16.0 | 0.00 | 0.00 | 0.00 | 68 | 1005.1 |
| 20260906033538 | 62 | 267 | 10.0 | 16.0 | 0.00 | 0.00 | 0.00 | 68 | 1005.3 |
| 20260906033058 | 62 | 270 | 10.0 | 17.0 | 0.00 | 0.00 | 0.00 | 67 | 1005.3 |
| 20260906032539 | 62 | 323 | 9.0 | 17.0 | 0.00 | 0.00 | 0.00 | 68 | 1005.4 |
| 20260906032041 | 62 | 267 | 10.0 | 19.0 | 0.00 | 0.00 | 0.00 | 68 | 1005.6 |
| 20260906031607 | 61 | 304 | 11.0 | 19.0 | 0.00 | 0.00 | 0.00 | 69 | 1005.7 |
| 20260906031040 | 61 | 275 | 12.0 | 17.0 | 0.00 | 0.00 | 0.00 | 68 | 1005.7 |
| 20260906030540 | 61 | 278 | 12.0 | 18.0 | 0.00 | 0.00 | 0.00 | 69 | 1005.7 |
| 20260906030059 | 61 | 268 | 11.0 | 18.0 | 0.00 | 0.00 | 0.00 | 68 | 1005.7 |
| 20260906025538 | 61 | 11 | 10.0 | 17.0 | 0.00 | 0.02 | 0.00 | 67 | 1005.6 |
| 20260906025040 | 61 | 271 | 10.0 | 17.0 | 0.00 | 0.02 | 0.00 | 67 | 1005.7 |
| 20260906024558 | 62 | 288 | 11.0 | 17.0 | 0.00 | 0.02 | 0.00 | 66 | 1005.7 |
| 20260906024039 | 62 | 281 | 9.0 | 17.0 | 0.00 | 0.02 | 0.00 | 66 | 1005.7 |
| 20260906023540 | 63 | 284 | 9.0 | 17.0 | 0.00 | 0.02 | 0.00 | 65 | 1005.6 |
| 20260906023055 | 63 | 280 | 8.0 | 16.0 | 0.00 | 0.02 | 0.00 | 68 | 1005.7 |
| 20260906022539 | 63 | 286 | 10.0 | 17.0 | 0.00 | 0.02 | 0.00 | 66 | 1005.7 |
| 20260906022042 | 64 | 347 | 7.0 | 25.0 | 0.00 | 0.02 | 0.00 | 65 | 1005.7 |
| 20260906021557 | 64 | 278 | 10.0 | 27.0 | 0.00 | 0.02 | 0.00 | 66 | 1005.8 |
| 20260906021038 | 64 | 274 | 15.0 | 27.0 | 0.00 | 0.02 | 0.00 | 64 | 1005.8 |
| 20260906020539 | 64 | 279 | 12.0 | 27.0 | 0.00 | 0.02 | 0.00 | 63 | 1006.0 |
| 20260906015539 | 64 | 279 | 11.0 | 18.0 | 0.00 | 0.02 | 0.00 | 66 | 1006.2 |
| 20260906015039 | 64 | 294 | 9.0 | 19.0 | 0.00 | 0.02 | 0.00 | 64 | 1006.3 |
| 20260906014552 | 64 | 269 | 11.0 | 19.0 | 0.00 | 0.02 | 0.00 | 67 | 1006.4 |
| 20260906014039 | 63 | 254 | 12.0 | 19.0 | 0.00 | 0.02 | 0.00 | 64 | 1006.5 |
| 20260906013539 | 63 | 262 | 9.0 | 17.0 | 0.00 | 0.02 | 0.00 | 68 | 1006.6 |
| 20260906013103 | 63 | 67 | 9.0 | 19.0 | 0.00 | 0.02 | 0.00 | 68 | 1006.7 |
| 20260906012543 | 63 | 265 | 9.0 | 19.0 | 0.00 | 0.02 | 0.00 | 68 | 1006.8 |
| 20260906012038 | 62 | 270 | 10.0 | 20.0 | 0.00 | 0.02 | 0.00 | 69 | 1006.8 |
| 20260906011550 | 61 | 286 | 11.0 | 20.0 | 0.00 | 0.02 | 0.00 | 68 | 1006.8 |
| 20260906011038 | 62 | 292 | 9.0 | 24.0 | 0.00 | 0.02 | 0.00 | 70 | 1006.9 |
| 20260906010539 | 62 | 296 | 14.0 | 24.0 | 0.00 | 0.02 | 0.00 | 68 | 1007.2 |
| 20260906010059 | 62 | 286 | 11.0 | 23.0 | 0.00 | 0.02 | 0.00 | 73 | 1007.5 |
| 20260906005540 | 62 | 283 | 11.0 | 23.0 | 0.00 | 0.02 | 0.00 | 73 | 1007.6 |
| 20260906005039 | 62 | 256 | 12.0 | 21.0 | 0.00 | 0.02 | 0.00 | 73 | 1007.8 |
| 20260906004554 | 61 | 301 | 13.0 | 21.0 | 0.00 | 0.02 | 0.00 | 71 | 1007.9 |
| 20260906004039 | 61 | 241 | 12.0 | 20.0 | 0.00 | 0.02 | 0.00 | 73 | 1008.0 |
| 20260906003539 | 61 | 290 | 13.0 | 21.0 | 0.00 | 0.02 | 0.00 | 73 | 1008.2 |
| 20260906003050 | 61 | 267 | 12.0 | 21.0 | 0.00 | 0.02 | 0.00 | 75 | 1008.4 |
| 20260906002540 | 60 | 284 | 12.0 | 19.0 | 0.00 | 0.02 | 0.00 | 75 | 1008.6 |
| 20260906002039 | 60 | 242 | 8.0 | 14.0 | 0.00 | 0.02 | 0.00 | 78 | 1008.6 |
| 20260906001547 | 60 | 260 | 9.0 | 15.0 | 0.00 | 0.02 | 0.00 | 78 | 1008.9 |
| 20260906001039 | 59 | 281 | 7.0 | 18.0 | 0.00 | 0.02 | 0.00 | 78 | 1009.0 |
| 20260906000539 | 60 | 266 | 8.0 | 18.0 | 0.00 | 0.02 | 0.00 | 77 | 1009.1 |
| 20260906000057 | 59 | 286 | 10.0 | 18.0 | 0.00 | 0.02 | 0.00 | 78 | 1009.2 |
| 20260905235539 | 59 | 298 | 11.0 | 18.0 | 0.00 | 0.02 | 0.00 | 79 | 1009.3 |
| 20260905235038 | 59 | 284 | 10.0 | 18.0 | 0.00 | 0.02 | 0.00 | 79 | 1009.3 |
| 20260905234553 | 59 | 309 | 11.0 | 17.0 | 0.00 | 0.02 | 0.00 | 79 | 1009.5 |
| 20260905234039 | 59 | 262 | 9.0 | 15.0 | 0.00 | 0.02 | 0.00 | 81 | 1009.6 |
| 20260905233539 | 58 | 279 | 8.0 | 17.0 | 0.00 | 0.02 | 0.00 | 80 | 1009.7 |